FW9446 Weather Reports


Display with metric or nautical units.
time (UTC)temp
F
wind
direction
speed
MPH
gust
MPH
rain 1hr
in
rain 24hr
in
rain mn
in
humidity
%
barometer
mb
20260503001607 59 0 0.0 0.0 0.00 0.00 0.00 51 1015.7
20260503001058 59 0 0.0 1.0 0.00 0.00 0.00 48 1015.6
20260503000604 60 0 0.0 1.0 0.00 0.00 0.00 47 1015.5
20260503000100 60 0 0.0 1.0 0.00 0.00 0.00 47 1015.5
20260502235557 60 0 0.0 1.0 0.00 0.00 0.00 45 1015.3
20260502235056 61 0 0.0 0.0 0.00 0.00 0.00 45 1015.1
20260502234558 61 0 0.0 3.0 0.00 0.00 0.00 44 1015.1
20260502234058 62 0 0.0 3.0 0.00 0.00 0.00 42 1015.0
20260502233557 62 0 0.0 4.0 0.00 0.00 0.00 47 1015.0
20260502233100 62 0 0.0 4.0 0.00 0.00 0.00 43 1014.8
20260502232604 62 0 0.0 4.0 0.00 0.00 0.00 41 1014.8
20260502232057 63 103 0.0 2.0 0.00 0.00 0.00 45 1014.8
20260502231603 63 0 0.0 1.0 0.00 0.00 0.00 42 1014.9
20260502231057 63 0 0.0 3.0 0.00 0.00 0.00 44 1014.7
20260502230557 63 0 0.0 3.0 0.00 0.00 0.00 46 1014.8
20260502230059 63 229 0.0 3.0 0.00 0.00 0.00 40 1014.8
20260502225556 63 0 0.0 5.0 0.00 0.00 0.00 43 1014.9
20260502225057 63 265 0.0 5.0 0.00 0.00 0.00 42 1015.0
20260502224604 63 132 0.0 4.0 0.00 0.00 0.00 43 1015.0
20260502224057 63 80 1.0 4.0 0.00 0.00 0.00 44 1014.9
20260502223557 63 0 0.0 4.0 0.00 0.00 0.00 39 1014.9
20260502223057 63 0 0.0 4.0 0.00 0.00 0.00 40 1015.0
20260502222557 64 175 1.0 5.0 0.00 0.00 0.00 41 1014.9
20260502222056 64 0 1.0 5.0 0.00 0.00 0.00 45 1014.8
20260502221603 64 170 1.0 5.0 0.00 0.00 0.00 38 1014.8
20260502221059 65 182 0.0 3.0 0.00 0.00 0.00 38 1014.7
20260502220557 65 77 1.0 4.0 0.00 0.00 0.00 41 1014.6
20260502220057 65 0 0.0 5.0 0.00 0.00 0.00 38 1014.7
20260502215556 65 0 1.0 5.0 0.00 0.00 0.00 37 1014.7
20260502215058 66 103 0.0 8.0 0.00 0.00 0.00 42 1014.6
20260502214600 66 140 1.0 8.0 0.00 0.00 0.00 36 1014.7
20260502214057 67 74 0.0 7.0 0.00 0.00 0.00 41 1014.7
20260502213557 67 94 2.0 7.0 0.00 0.00 0.00 37 1014.6
20260502213101 66 0 0.0 5.0 0.00 0.00 0.00 36 1014.4
20260502212557 66 119 1.0 3.0 0.00 0.00 0.00 42 1014.4
20260502212057 65 115 0.0 3.0 0.00 0.00 0.00 38 1014.4
20260502211602 65 0 1.0 10.0 0.00 0.00 0.00 37 1014.4
20260502211059 65 254 1.0 10.0 0.00 0.00 0.00 40 1014.6
20260502210557 65 162 1.0 4.0 0.00 0.00 0.00 37 1014.4
20260502210116 65 186 0.0 7.0 0.00 0.00 0.00 41 1014.5
20260502205556 65 98 1.0 7.0 0.00 0.00 0.00 37 1014.5
20260502205100 66 163 1.0 7.0 0.00 0.00 0.00 37 1014.5
20260502204600 66 104 1.0 7.0 0.00 0.00 0.00 41 1014.5
20260502204058 66 159 1.0 8.0 0.00 0.00 0.00 37 1014.4
20260502203559 65 274 1.0 8.0 0.00 0.00 0.00 37 1014.3
20260502203057 64 92 0.0 5.0 0.00 0.00 0.00 44 1014.4
20260502202558 64 134 0.0 3.0 0.00 0.00 0.00 44 1014.5
20260502202057 65 0 0.0 3.0 0.00 0.00 0.00 43 1014.5
20260502201558 65 0 0.0 7.0 0.00 0.00 0.00 39 1014.5
20260502201057 65 0 0.0 7.0 0.00 0.00 0.00 40 1014.6
20260502200558 66 0 2.0 7.0 0.00 0.00 0.00 37 1014.7
20260502200100 67 145 1.0 10.0 0.00 0.00 0.00 39 1014.5
20260502195557 67 123 1.0 10.0 0.00 0.00 0.00 42 1014.6
20260502195056 67 26 2.0 8.0 0.00 0.00 0.00 38 1014.7
20260502194559 68 44 1.0 5.0 0.00 0.00 0.00 40 1014.8
20260502194100 67 132 2.0 5.0 0.00 0.00 0.00 39 1014.8
20260502193556 67 0 1.0 5.0 0.00 0.00 0.00 42 1014.7
20260502193108 66 166 0.0 6.0 0.00 0.00 0.00 42 1014.9
20260502192558 66 206 2.0 8.0 0.00 0.00 0.00 38 1014.9
20260502192057 66 74 2.0 9.0 0.00 0.00 0.00 38 1015.0
20260502191601 66 69 1.0 9.0 0.00 0.00 0.00 44 1015.0
20260502191058 65 101 1.0 9.0 0.00 0.00 0.00 45 1015.1
20260502190558 64 0 1.0 6.0 0.00 0.00 0.00 43 1015.1
20260502190109 64 142 2.0 7.0 0.00 0.00 0.00 47 1015.2
20260502185556 64 119 2.0 7.0 0.00 0.00 0.00 51 1015.3
20260502185057 64 53 0.0 4.0 0.00 0.00 0.00 48 1015.3
20260502184604 64 103 1.0 8.0 0.00 0.00 0.00 48 1015.3
20260502184057 64 0 1.0 9.0 0.00 0.00 0.00 45 1015.4
20260502183556 64 289 2.0 9.0 0.00 0.00 0.00 40 1015.5
20260502183112 64 123 1.0 9.0 0.00 0.00 0.00 41 1015.4
20260502182558 64 280 2.0 9.0 0.00 0.00 0.00 42 1015.4
20260502182056 64 117 2.0 8.0 0.00 0.00 0.00 45 1015.3
20260502181600 64 162 1.0 5.0 0.00 0.00 0.00 43 1015.3
20260502181100 64 0 1.0 5.0 0.00 0.00 0.00 50 1015.4
20260502180602 63 0 0.0 5.0 0.00 0.00 0.00 42 1015.4
20260502164100 61 0 2.0 5.0 0.00 0.00 0.00 49 1016.2
20260502163557 61 109 1.0 5.0 0.00 0.00 0.00 45 1016.2
20260502163112 60 207 0.0 4.0 0.00 0.00 0.00 50 1016.3
20260502162557 60 98 1.0 6.0 0.00 0.00 0.00 53 1016.4
20260502162057 60 0 1.0 6.0 0.00 0.00 0.00 53 1016.4
20260502161623 60 0 1.0 6.0 0.00 0.00 0.00 57 1016.4
20260502161057 60 101 0.0 6.0 0.00 0.00 0.00 59 1016.3
20260502160556 59 0 0.0 4.0 0.00 0.00 0.00 54 1016.4
20260502152104 57 0 1.0 5.0 0.00 0.00 0.00 52 1016.2
20260502151611 57 0 1.0 5.0 0.00 0.00 0.00 55 1016.2
20260502151100 57 108 0.0 5.0 0.00 0.00 0.00 60 1016.1
20260502150557 57 224 1.0 9.0 0.00 0.00 0.00 52 1015.9
20260502140108 55 24 1.0 7.0 0.00 0.00 0.00 60 1015.5
20260502130600 53 246 0.0 7.0 0.00 0.00 0.00 73 1015.5
20260502130107 53 92 0.0 7.0 0.00 0.00 0.00 70 1015.4
20260502123558 52 281 0.0 5.0 0.00 0.00 0.00 70 1015.2
20260502123100 52 0 0.0 5.0 0.00 0.00 0.00 70 1015.2
20260502122559 52 0 0.0 3.0 0.00 0.00 0.00 70 1015.1
20260502122059 52 0 0.0 1.0 0.00 0.00 0.00 72 1015.0
20260502121602 52 0 0.0 0.0 0.00 0.00 0.00 73 1015.0
20260502121059 52 0 0.0 0.0 0.00 0.00 0.00 71 1015.1
20260502120603 51 0 0.0 0.0 0.00 0.00 0.00 72 1015.0
20260502115558 51 0 0.0 3.0 0.00 0.00 0.00 70 1015.0
20260502115101 51 0 0.0 3.0 0.00 0.00 0.00 71 1015.1
20260502114606 51 0 0.0 2.0 0.00 0.00 0.00 71 1015.1
20260502114100 51 0 0.0 2.0 0.00 0.00 0.00 70 1015.0
20260502113558 52 0 0.0 2.0 0.00 0.00 0.00 69 1015.1
20260502113058 52 0 0.0 2.0 0.00 0.00 0.00 70 1015.0
20260502112558 52 227 0.0 1.0 0.00 0.00 0.00 71 1014.9
20260502112101 52 0 0.0 3.0 0.00 0.00 0.00 69 1014.9
20260502111605 52 0 0.0 3.0 0.00 0.00 0.00 69 1014.8
20260502111059 52 0 0.0 3.0 0.00 0.00 0.00 69 1014.7
20260502110559 52 0 0.0 2.0 0.00 0.00 0.00 70 1014.9
20260502110059 52 0 0.0 3.0 0.00 0.00 0.00 70 1014.8
20260502105559 52 0 0.0 6.0 0.00 0.00 0.00 71 1014.6
20260502105059 52 0 1.0 8.0 0.00 0.00 0.00 70 1014.5
20260502104557 52 0 0.0 8.0 0.00 0.00 0.00 71 1014.5
20260502104058 52 0 0.0 2.0 0.00 0.00 0.00 69 1014.6
20260502103600 52 0 0.0 4.0 0.00 0.00 0.00 69 1014.4
20260502103106 52 0 0.0 4.0 0.00 0.00 0.00 71 1014.2
20260502102558 52 0 0.0 2.0 0.00 0.00 0.00 69 1014.2
20260502102058 52 0 0.0 2.0 0.00 0.00 0.00 68 1014.2
20260502101600 52 0 0.0 3.0 0.00 0.00 0.00 68 1014.4
20260502101058 52 0 0.0 3.0 0.00 0.00 0.00 67 1014.3
20260502100558 53 144 0.0 3.0 0.00 0.00 0.00 67 1014.4
20260502091058 53 0 0.0 4.0 0.00 0.00 0.00 67 1014.2
20260502090558 53 264 0.0 1.0 0.00 0.00 0.00 66 1014.1
20260502090115 54 0 0.0 5.0 0.00 0.00 0.00 64 1014.4
20260502071058 54 0 0.0 4.0 0.00 0.00 0.00 62 1014.7
20260502070558 54 0 0.0 0.0 0.00 0.00 0.00 61 1015.2
20260502070122 55 0 0.0 0.0 0.00 0.00 0.00 61 1015.4
20260502065559 55 0 0.0 0.0 0.00 0.00 0.00 60 1015.4
20260502065058 55 0 0.0 0.0 0.00 0.00 0.00 61 1015.3
20260502064602 55 0 0.0 2.0 0.00 0.00 0.00 59 1015.3
20260502064100 55 0 0.0 2.0 0.00 0.00 0.00 59 1015.3
20260502063558 55 0 0.0 2.0 0.00 0.00 0.00 57 1015.3
20260502063106 56 0 0.0 4.0 0.00 0.00 0.00 59 1015.2
20260502062558 56 0 0.0 4.0 0.00 0.00 0.00 58 1015.2
20260502062100 56 0 0.0 3.0 0.00 0.00 0.00 57 1015.2
20260502061606 56 296 0.0 2.0 0.00 0.00 0.00 58 1015.0
20260502061100 56 0 0.0 2.0 0.00 0.00 0.00 59 1015.2
20260502060604 56 0 0.0 1.0 0.00 0.00 0.00 56 1015.4
20260502060100 56 0 0.0 2.0 0.00 0.00 0.00 58 1015.5
20260502055601 56 0 0.0 2.0 0.00 0.00 0.00 57 1015.5
20260502055056 56 0 0.0 2.0 0.00 0.00 0.00 56 1015.5
20260502054557 56 0 0.0 2.0 0.00 0.00 0.00 55 1015.4
20260502054056 56 0 0.0 2.0 0.00 0.00 0.00 59 1015.3
20260502053559 57 0 0.0 1.0 0.00 0.00 0.00 56 1015.2
20260502053127 57 0 0.0 1.0 0.00 0.00 0.00 57 1015.0
20260502052556 57 0 0.0 2.0 0.00 0.00 0.00 56 1015.0
20260502052058 57 0 0.0 2.0 0.00 0.00 0.00 57 1014.9
20260502051617 57 0 0.0 3.0 0.00 0.00 0.00 55 1015.0
20260502051100 57 217 0.0 3.0 0.00 0.00 0.00 57 1015.0
20260502050559 57 144 0.0 3.0 0.00 0.00 0.00 58 1014.9
20260502045556 57 0 0.0 3.0 0.00 0.00 0.00 58 1015.0
20260502045059 57 0 0.0 3.0 0.00 0.00 0.00 60 1015.1
20260502044559 58 191 0.0 3.0 0.00 0.00 0.00 61 1015.1
20260502044058 58 74 0.0 3.0 0.00 0.00 0.00 59 1015.2
20260502043556 58 0 0.0 3.0 0.00 0.00 0.00 63 1015.1
20260502043111 58 0 0.0 3.0 0.00 0.00 0.00 62 1015.0
20260502042557 58 0 0.0 1.0 0.00 0.00 0.00 63 1014.9
20260502042056 58 0 0.0 2.0 0.00 0.00 0.00 61 1015.0
20260502041631 59 0 0.0 4.0 0.00 0.00 0.00 59 1015.1
20260502041056 59 0 0.0 4.0 0.00 0.00 0.00 58 1015.1
20260502040556 59 0 1.0 4.0 0.00 0.00 0.00 61 1015.2
20260502040056 59 219 1.0 6.0 0.00 0.00 0.00 59 1015.3
20260502035556 59 0 0.0 6.0 0.00 0.00 0.00 60 1015.1
20260502035056 59 0 1.0 8.0 0.00 0.00 0.00 61 1015.1
20260502034559 59 0 1.0 8.0 0.00 0.00 0.00 63 1015.1
20260502034056 59 0 0.0 4.0 0.00 0.00 0.00 63 1015.1
20260502033559 59 0 1.0 4.0 0.00 0.00 0.00 65 1015.0
20260502033107 59 0 0.0 3.0 0.00 0.00 0.00 65 1015.2
20260502032555 59 228 0.0 5.0 0.00 0.00 0.00 66 1015.2
20260502032056 59 0 0.0 5.0 0.00 0.00 0.00 68 1015.1
20260502031600 59 173 0.0 3.0 0.00 0.00 0.00 69 1015.1
20260502031058 59 0 0.0 2.0 0.00 0.00 0.00 69 1015.1
20260502030558 59 0 0.0 3.0 0.00 0.00 0.00 69 1015.0
20260502030057 59 0 0.0 5.0 0.00 0.00 0.00 69 1015.0
20260502025558 59 0 0.0 5.0 0.00 0.00 0.00 70 1015.0
20260502025058 59 0 0.0 3.0 0.00 0.00 0.00 73 1014.7
20260502024557 58 0 0.0 3.0 0.00 0.00 0.00 71 1014.7
20260502024058 58 0 0.0 3.0 0.00 0.00 0.00 72 1014.6
20260502023559 57 0 0.0 3.0 0.00 0.00 0.00 72 1014.7
20260502023100 57 0 0.0 3.0 0.00 0.00 0.00 78 1014.8
20260502022558 56 0 0.0 3.0 0.00 0.00 0.00 82 1014.7
20260502022057 56 0 0.0 2.0 0.00 0.00 0.00 83 1014.7
20260502021556 56 0 0.0 0.0 0.00 0.00 0.00 85 1014.7
20260502021057 56 0 0.0 0.0 0.00 0.00 0.00 85 1014.7
20260502020600 56 0 0.0 0.0 0.00 0.00 0.00 85 1014.7
20260502020106 56 0 0.0 0.0 0.00 0.00 0.00 84 1014.5
20260502015558 56 0 0.0 0.0 0.00 0.00 0.00 84 1014.5
20260502015059 56 0 0.0 0.0 0.00 0.00 0.00 83 1014.4
20260502014556 56 0 0.0 0.0 0.00 0.00 0.00 83 1014.4
20260502014059 56 0 0.0 0.0 0.00 0.00 0.00 84 1014.4
20260502013558 56 0 0.0 0.0 0.00 0.00 0.00 84 1014.4
20260502013059 57 0 0.0 0.0 0.00 0.00 0.00 85 1014.3
20260502012601 57 0 0.0 0.0 0.00 0.00 0.00 84 1014.3
20260502012059 57 0 0.0 0.0 0.00 0.00 0.00 85 1014.3
20260502011603 57 0 0.0 0.0 0.00 0.00 0.00 84 1014.2
20260502011057 57 0 0.0 0.0 0.00 0.00 0.00 83 1014.0
20260502010559 57 0 0.0 0.0 0.00 0.00 0.00 84 1014.0
20260502005559 57 0 0.0 0.0 0.00 0.00 0.00 82 1013.7
20260502005059 58 0 0.0 0.0 0.00 0.00 0.00 81 1013.7
20260502004607 58 0 0.0 0.0 0.00 0.00 0.00 81 1013.6
20260502004059 58 0 0.0 0.0 0.00 0.00 0.00 82 1013.5
20260502003601 58 0 0.0 0.0 0.00 0.00 0.00 82 1013.5
20260502003057 59 0 0.0 0.0 0.00 0.00 0.00 81 1013.4
20260502002558 59 0 0.0 0.0 0.00 0.00 0.00 80 1013.5
20260502002058 59 0 0.0 0.0 0.00 0.00 0.00 81 1013.5